CW1988 Weather Reports


Display with metric or nautical units.
time (UTC)temp
F
wind
direction
speed
MPH
gust
MPH
rain 1hr
in
rain 24hr
in
rain mn
in
humidity
%
barometer
mb
20260906025359 67 129 0.0 0.0 0.00 0.00 0.00 86 1019.1
20260906024858 67 129 0.0 0.0 0.00 0.00 0.00 87 1019.0
20260906024357 67 125 0.0 0.0 0.00 0.00 0.00 86 1018.9
20260906023852 67 128 0.0 1.0 0.00 0.00 0.00 87 1018.7
20260906023348 67 139 0.0 1.0 0.00 0.00 0.00 87 1018.7
20260906022843 67 109 0.0 2.0 0.00 0.00 0.00 88 1018.7
20260906022337 68 125 0.0 0.0 0.00 0.00 0.00 89 1018.7
20260906021833 68 131 0.0 0.0 0.00 0.00 0.00 89 1018.6
20260906021332 68 124 0.0 0.0 0.00 0.00 0.00 90 1018.8
20260906020827 68 123 0.0 0.0 0.00 0.00 0.00 91 1018.5
20260906020326 68 124 0.0 0.0 0.00 0.00 0.00 92 1018.6
20260906015821 68 124 0.0 0.0 0.00 0.00 0.00 92 1018.8
20260906015321 68 124 0.0 0.0 0.00 0.00 0.00 92 1018.6
20260906014820 69 124 0.0 0.0 0.00 0.00 0.00 93 1018.6
20260906014316 69 124 0.0 0.0 0.00 0.00 0.00 92 1018.5
20260906013812 69 129 0.0 0.0 0.00 0.00 0.00 92 1018.5
20260906013307 69 129 0.0 0.0 0.00 0.00 0.00 91 1018.8
20260906012803 70 128 0.0 0.0 0.00 0.00 0.00 90 1018.7
20260906012258 70 128 0.0 0.0 0.00 0.00 0.00 89 1018.5
20260906011753 70 127 0.0 0.0 0.00 0.00 0.00 88 1018.6
20260906011252 70 136 0.0 0.0 0.00 0.00 0.00 88 1018.5
20260906010748 70 138 0.0 0.0 0.00 0.00 0.00 88 1018.5
20260906010244 70 138 0.0 0.0 0.00 0.00 0.00 89 1018.7
20260906005739 70 138 0.0 0.0 0.00 0.00 0.00 90 1018.7
20260906005238 70 139 0.0 0.0 0.00 0.00 0.00 91 1018.6
20260906004737 70 136 0.0 0.0 0.00 0.00 0.00 91 1018.5
20260906004232 70 130 0.0 0.0 0.00 0.00 0.00 92 1018.7
20260906003727 70 130 0.0 0.0 0.00 0.00 0.00 93 1018.6
20260906003223 70 130 0.0 0.0 0.00 0.00 0.00 93 1018.5
20260906002723 70 130 0.0 0.0 0.00 0.00 0.00 93 1018.4
20260906002218 70 130 0.0 0.0 0.00 0.00 0.00 93 1018.6
20260906001713 70 130 0.0 0.0 0.00 0.00 0.00 93 1018.3
20260906001213 70 130 0.0 1.0 0.00 0.00 0.00 92 1018.5
20260906000708 70 130 0.0 0.0 0.00 0.00 0.00 92 1018.6
20260906000204 70 129 0.0 0.0 0.00 0.00 0.00 92 1018.5
20260905235702 70 130 0.0 0.0 0.00 0.00 0.00 91 1018.4
20260905235157 70 131 0.0 0.0 0.00 0.00 0.00 91 1018.3
20260905234653 70 128 0.0 0.0 0.00 0.00 0.00 91 1018.4
20260905234148 70 124 0.0 0.0 0.00 0.00 0.00 91 1018.7
20260905233643 71 133 0.0 0.0 0.00 0.00 0.00 91 1018.5
20260905233142 71 133 0.0 0.0 0.00 0.00 0.00 90 1018.6
20260905232638 71 134 0.0 1.0 0.00 0.00 0.00 90 1018.5
20260905232134 71 129 0.0 0.0 0.00 0.00 0.00 90 1018.5
20260905231629 71 143 1.0 1.0 0.00 0.00 0.00 90 1018.5
20260905231126 72 129 0.0 0.0 0.00 0.00 0.00 90 1018.5
20260905230621 72 145 0.0 0.0 0.00 0.00 0.00 89 1018.5
20260905230119 72 145 0.0 0.0 0.00 0.00 0.00 89 1018.5
20260905225618 72 123 0.0 0.0 0.00 0.00 0.00 90 1018.4
20260905225114 72 123 0.0 0.0 0.00 0.00 0.00 89 1018.5
20260905224614 72 122 0.0 0.0 0.00 0.00 0.00 89 1018.5
20260905224113 72 132 0.0 0.0 0.00 0.00 0.00 89 1018.5
20260905223610 72 146 0.0 0.0 0.00 0.00 0.00 89 1018.3
20260905223107 72 125 0.0 0.0 0.00 0.00 0.00 89 1018.3
20260905222606 72 129 1.0 1.0 0.00 0.00 0.00 89 1018.3
20260905222102 72 147 0.0 0.0 0.00 0.00 0.00 88 1018.2
20260905221558 73 127 0.0 0.0 0.00 0.00 0.00 88 1018.2
20260905221054 73 137 0.0 0.0 0.00 0.00 0.00 88 1018.1
20260905220549 73 136 0.0 0.0 0.00 0.00 0.00 89 1018.1
20260905220045 73 136 0.0 0.0 0.00 0.00 0.00 88 1017.9
20260905215544 73 158 0.0 0.0 0.00 0.00 0.00 87 1018.0
20260905215040 73 129 0.0 0.0 0.00 0.00 0.00 88 1017.8
20260905214536 73 132 0.0 0.0 0.00 0.00 0.00 88 1017.7
20260905214031 74 146 0.0 0.0 0.00 0.00 0.00 87 1017.8
20260905213526 74 154 0.0 0.0 0.00 0.00 0.00 86 1017.8
20260905213022 74 132 0.0 1.0 0.00 0.00 0.00 87 1017.7
20260905212517 74 129 0.0 0.0 0.00 0.00 0.00 87 1017.8
20260905212017 75 131 0.0 0.0 0.00 0.00 0.00 86 1017.7
20260905211512 75 123 1.0 1.0 0.00 0.00 0.00 87 1017.7
20260905211007 74 139 0.0 1.0 0.00 0.00 0.00 87 1017.9
20260905210503 74 153 0.0 0.0 0.00 0.00 0.00 85 1017.7
20260905210002 75 148 0.0 0.0 0.00 0.00 0.00 84 1017.6
20260905205457 75 146 0.0 0.0 0.00 0.00 0.00 84 1017.5
20260905204955 75 148 0.0 0.0 0.00 0.00 0.00 84 1017.6
20260905204451 75 147 0.0 0.0 0.00 0.00 0.00 84 1017.9
20260905203950 75 151 0.0 0.0 0.00 0.00 0.00 83 1017.8
20260905203446 75 149 0.0 0.0 0.00 0.00 0.00 83 1017.8
20260905202942 75 148 0.0 0.0 0.00 0.00 0.00 83 1017.7
20260905202442 75 138 0.0 0.0 0.00 0.00 0.00 83 1017.7
20260905201937 76 149 0.0 0.0 0.00 0.00 0.00 84 1017.7
20260905201432 76 146 1.0 1.0 0.00 0.00 0.00 83 1017.7
20260905200927 76 137 0.0 0.0 0.00 0.00 0.00 84 1017.7
20260905200423 76 127 0.0 0.0 0.00 0.00 0.00 84 1017.7
20260905195921 77 133 0.0 1.0 0.00 0.00 0.00 84 1017.6
20260905195417 77 157 0.0 0.0 0.00 0.00 0.00 82 1017.6
20260905194912 76 127 1.0 1.0 0.00 0.00 0.00 85 1017.8
20260905194412 76 128 1.0 1.0 0.00 0.00 0.00 87 1017.7
20260905193911 76 131 0.0 0.0 0.00 0.00 0.00 84 1017.8
20260905193406 77 125 0.0 0.0 0.00 0.00 0.00 84 1017.7
20260905192902 77 136 0.0 0.0 0.00 0.00 0.00 83 1017.7
20260905192357 75 142 0.0 0.0 0.00 0.00 0.00 85 1017.6
20260905191857 75 147 0.0 0.0 0.00 0.00 0.00 86 1017.9
20260905191356 76 128 0.0 0.0 0.00 0.00 0.00 86 1017.7
20260905190855 75 144 1.0 2.0 0.00 0.00 0.00 87 1017.9
20260905190348 75 131 0.0 1.0 0.00 0.00 0.00 89 1017.8
20260905185847 75 155 0.0 1.0 0.00 0.00 0.00 88 1017.7
20260905185343 76 161 0.0 0.0 0.00 0.00 0.00 87 1017.8
20260905184841 77 156 0.0 0.0 0.00 0.00 0.00 85 1017.6
20260905184341 77 157 0.0 0.0 0.00 0.00 0.00 85 1017.7
20260905183834 78 161 0.0 0.0 0.00 0.00 0.00 82 1017.5
20260905183330 77 141 0.0 0.0 0.00 0.00 0.00 83 1017.6
20260905182829 77 141 0.0 0.0 0.00 0.00 0.00 83 1017.7
20260905182324 77 149 0.0 0.0 0.00 0.00 0.00 83 1017.6
20260905181819 77 149 0.0 0.0 0.00 0.00 0.00 83 1017.7
20260905181319 77 129 0.0 0.0 0.00 0.00 0.00 82 1017.6
20260905180818 77 128 0.0 0.0 0.00 0.00 0.00 82 1017.7
20260905180313 77 124 0.0 0.0 0.00 0.00 0.00 82 1017.7
20260905175808 77 125 0.0 0.0 0.00 0.00 0.00 82 1017.7
20260905175306 77 127 0.0 0.0 0.00 0.00 0.00 81 1017.7
20260905174758 78 132 0.0 0.0 0.00 0.00 0.00 81 1017.6
20260905174254 77 142 0.0 0.0 0.00 0.00 0.00 82 1017.5
20260905173749 77 142 0.0 0.0 0.00 0.00 0.00 81 1017.6
20260905173245 78 142 0.0 0.0 0.00 0.00 0.00 81 1017.6
20260905172744 78 142 0.0 0.0 0.00 0.00 0.00 82 1017.8
20260905172243 77 141 0.0 0.0 0.00 0.00 0.00 81 1017.8
20260905171740 77 142 0.0 0.0 0.00 0.00 0.00 81 1017.7
20260905171236 77 151 0.0 0.0 0.00 0.00 0.00 81 1017.9
20260905170732 77 149 0.0 0.0 0.00 0.00 0.00 81 1017.7
20260905170228 77 149 0.0 0.0 0.00 0.00 0.00 83 1017.9
20260905165727 77 147 0.0 0.0 0.00 0.00 0.00 83 1017.8
20260905165222 77 143 0.0 0.0 0.00 0.00 0.00 82 1017.6
20260905164722 78 142 0.0 0.0 0.00 0.00 0.00 83 1017.7
20260905164217 78 143 0.0 0.0 0.00 0.00 0.00 82 1017.9
20260905163713 78 142 0.0 0.0 0.00 0.00 0.00 81 1017.9
20260905163209 79 137 0.0 0.0 0.00 0.00 0.00 79 1017.8
20260905162705 77 137 1.0 1.0 0.00 0.00 0.00 85 1017.8
20260905162204 76 137 0.0 0.0 0.00 0.00 0.00 85 1017.6
20260905161659 77 137 0.0 0.0 0.00 0.00 0.00 83 1017.7
20260905161157 77 136 0.0 0.0 0.00 0.00 0.00 85 1017.8
20260905160650 77 139 0.0 0.0 0.00 0.00 0.00 83 1017.9
20260905160149 77 136 0.0 0.0 0.00 0.00 0.00 86 1017.8
20260905155644 75 137 0.0 0.0 0.00 0.00 0.00 87 1017.7
20260905155143 75 142 0.0 0.0 0.00 0.00 0.00 87 1017.7
20260905154638 75 149 0.0 0.0 0.00 0.00 0.00 87 1017.6
20260905154134 75 149 0.0 0.0 0.00 0.00 0.00 87 1017.6
20260905153629 75 150 0.0 0.0 0.00 0.00 0.00 87 1017.7
20260905153125 75 151 0.0 0.0 0.00 0.00 0.00 86 1017.7
20260905152619 75 132 0.0 0.0 0.00 0.00 0.00 89 1017.6
20260905152114 75 132 0.0 0.0 0.00 0.00 0.00 87 1017.5
20260905151609 75 141 0.0 0.0 0.00 0.00 0.00 88 1017.6
20260905151104 75 147 0.0 0.0 0.00 0.00 0.00 87 1017.3
20260905150600 75 121 0.0 1.0 0.00 0.00 0.00 88 1017.4
20260905150057 74 152 0.0 0.0 0.00 0.00 0.00 88 1017.5
20260905145551 74 146 0.0 0.0 0.00 0.00 0.00 89 1017.5
20260905145050 74 143 0.0 0.0 0.00 0.00 0.00 89 1017.3
20260905144545 74 137 0.0 0.0 0.00 0.00 0.00 89 1017.2
20260905144044 74 136 0.0 0.0 0.00 0.00 0.00 90 1017.4
20260905143544 74 131 0.0 0.0 0.00 0.00 0.00 90 1017.1
20260905143039 73 136 0.0 0.0 0.00 0.00 0.00 92 1017.0
20260905142537 72 147 0.0 0.0 0.00 0.00 0.00 93 1017.0
20260905142032 72 131 0.0 0.0 0.00 0.00 0.00 94 1017.0
20260905141527 72 149 0.0 0.0 0.00 0.00 0.00 94 1016.9
20260905141024 72 128 0.0 0.0 0.00 0.00 0.00 95 1016.9
20260905140518 72 132 0.0 1.0 0.00 0.00 0.00 95 1017.1
20260905140017 72 122 0.0 1.0 0.00 0.00 0.00 94 1016.9
20260905135513 72 127 0.0 0.0 0.00 0.00 0.00 94 1016.9
20260905135008 72 141 0.0 0.0 0.00 0.00 0.00 94 1016.8
20260905134507 72 158 0.0 0.0 0.00 0.00 0.00 95 1016.8
20260905134006 72 125 0.0 0.0 0.00 0.00 0.00 95 1017.0
20260905133502 72 125 0.0 0.0 0.00 0.00 0.00 95 1017.0
20260905132956 72 125 0.0 0.0 0.00 0.00 0.00 96 1017.0
20260905132451 71 125 0.0 0.0 0.00 0.00 0.00 96 1017.1
20260905131945 71 124 0.0 0.0 0.00 0.00 0.00 96 1017.2
20260905131442 71 127 0.0 0.0 0.00 0.00 0.00 96 1017.4
20260905130941 71 131 0.0 0.0 0.00 0.00 0.00 97 1017.3
20260905130435 71 133 0.0 0.0 0.00 0.00 0.00 97 1017.0
20260905125930 71 125 0.0 0.0 0.00 0.00 0.00 97 1016.9
20260905125425 71 130 0.0 0.0 0.00 0.00 0.00 97 1016.6
20260905124920 71 131 0.0 0.0 0.00 0.00 0.00 98 1016.8
20260905124417 71 131 0.0 0.0 0.00 0.00 0.00 98 1016.4
20260905123916 71 130 0.0 0.0 0.00 0.00 0.00 98 1016.5
20260905123413 70 134 0.0 0.0 0.00 0.00 0.00 98 1016.5
20260905122908 70 135 0.0 0.0 0.00 0.00 0.00 98 1016.5
20260905122408 70 135 0.0 0.0 0.00 0.00 0.00 98 1016.4
20260905121903 70 135 0.0 0.0 0.00 0.00 0.00 99 1016.4
20260905121359 70 134 0.0 0.0 0.00 0.00 0.00 99 1016.3
20260905120858 70 149 0.0 0.0 0.00 0.00 0.00 99 1016.2
20260905120358 70 146 0.0 0.0 0.00 0.00 0.00 99 1016.1
20260905115853 70 135 0.0 0.0 0.00 0.00 0.00 99 1016.2
20260905115352 70 129 0.0 0.0 0.00 0.00 0.00 99 1016.1
20260905114847 69 133 0.0 0.0 0.00 0.00 0.00 99 1016.1
20260905114346 69 125 0.0 0.0 0.00 0.00 0.00 99 1016.0
20260905113845 69 126 0.0 0.0 0.00 0.00 0.00 99 1016.1
20260905113341 69 137 0.0 0.0 0.00 0.00 0.00 99 1016.0
20260905112836 69 135 0.0 0.0 0.00 0.00 0.00 99 1016.0
20260905112331 69 129 1.0 1.0 0.00 0.00 0.00 99 1015.7
20260905111826 69 137 0.0 0.0 0.00 0.00 0.00 99 1015.7
20260905111320 69 139 0.0 0.0 0.00 0.00 0.00 99 1015.5
20260905110821 69 143 0.0 0.0 0.00 0.00 0.00 99 1015.6
20260905110320 69 147 0.0 0.0 0.00 0.00 0.00 99 1015.6
20260905105815 69 144 0.0 0.0 0.00 0.00 0.00 99 1015.4
20260905105314 69 134 0.0 0.0 0.00 0.00 0.00 99 1015.5
20260905104809 69 142 0.0 0.0 0.00 0.00 0.00 99 1015.5
20260905104306 69 139 0.0 0.0 0.00 0.00 0.00 99 1015.4
20260905103805 69 148 0.0 0.0 0.00 0.00 0.00 99 1015.4
20260905103301 69 134 0.0 0.0 0.00 0.00 0.00 99 1015.4
20260905102756 69 126 0.0 0.0 0.00 0.00 0.00 99 1015.4
20260905102253 69 136 0.0 0.0 0.00 0.00 0.00 99 1015.4
20260905101752 69 138 0.0 0.0 0.00 0.00 0.00 99 1015.3
20260905101250 69 136 0.0 0.0 0.00 0.00 0.00 99 1015.1
20260905100745 69 138 0.0 0.0 0.00 0.00 0.00 99 1015.0
20260905100241 68 138 0.0 0.0 0.00 0.00 0.00 99 1015.1
20260905095736 68 138 0.0 0.0 0.00 0.00 0.00 99 1014.9
20260905095235 68 138 0.0 0.0 0.00 0.00 0.00 99 1015.0
20260905094730 68 138 0.0 0.0 0.00 0.00 0.00 99 1015.0
20260905094225 68 138 0.0 0.0 0.00 0.00 0.00 99 1014.9
20260905093725 68 138 0.0 0.0 0.00 0.00 0.00 99 1015.0
20260905093221 68 138 0.0 0.0 0.00 0.00 0.00 99 1014.8
20260905092716 68 138 0.0 0.0 0.00 0.00 0.00 99 1014.9
20260905092211 68 138 0.0 0.0 0.00 0.00 0.00 99 1015.0
20260905091710 68 138 0.0 0.0 0.00 0.00 0.00 99 1014.8
20260905091206 68 138 0.0 0.0 0.00 0.00 0.00 99 1014.9
20260905090705 68 138 0.0 0.0 0.00 0.00 0.00 99 1014.7
20260905090201 68 138 0.0 0.0 0.00 0.00 0.00 99 1014.8
20260905085659 68 138 0.0 0.0 0.00 0.00 0.00 99 1015.0
20260905085155 68 138 0.0 0.0 0.00 0.00 0.00 99 1015.0
20260905084654 69 138 0.0 0.0 0.00 0.00 0.00 99 1015.1
20260905084149 69 138 0.0 0.0 0.00 0.00 0.00 99 1015.0
20260905083643 69 138 0.0 0.0 0.00 0.00 0.00 99 1015.0
20260905083140 69 138 0.0 0.0 0.00 0.00 0.00 99 1015.1
20260905082636 69 138 0.0 0.0 0.00 0.00 0.00 99 1015.1
20260905082131 69 138 0.0 0.0 0.00 0.00 0.00 99 1014.9
20260905081631 69 138 0.0 0.0 0.00 0.00 0.00 99 1015.0
20260905081131 69 138 0.0 0.0 0.00 0.00 0.00 99 1015.0
20260905080626 69 138 0.0 0.0 0.00 0.00 0.00 99 1014.8
20260905080121 69 138 0.0 0.0 0.00 0.00 0.00 99 1014.6
20260905075620 69 138 0.0 0.0 0.00 0.00 0.00 99 1014.9
20260905075114 69 138 0.0 0.0 0.00 0.00 0.00 99 1015.0
20260905074613 69 138 0.0 0.0 0.00 0.00 0.00 99 1014.9
20260905074109 69 138 0.0 0.0 0.00 0.00 0.00 99 1014.9
20260905073605 69 138 0.0 0.0 0.00 0.00 0.00 99 1015.0
20260905073100 69 138 0.0 0.0 0.00 0.00 0.00 99 1014.9
20260905072559 69 138 0.0 0.0 0.00 0.00 0.00 99 1014.9
20260905072055 69 138 0.0 0.0 0.00 0.00 0.00 99 1014.8
20260905071552 70 138 0.0 0.0 0.00 0.00 0.00 99 1014.9
20260905071052 69 138 0.0 0.0 0.00 0.00 0.00 99 1014.8
20260905070547 69 138 0.0 0.0 0.00 0.00 0.00 99 1015.0
20260905070043 69 138 0.0 0.0 0.00 0.00 0.00 99 1014.9
20260905065540 69 138 0.0 0.0 0.00 0.00 0.00 99 1014.9
20260905065036 69 138 0.0 0.0 0.00 0.00 0.00 99 1015.1
20260905064535 69 138 0.0 0.0 0.00 0.00 0.00 99 1015.1
20260905064031 70 138 0.0 0.0 0.00 0.00 0.00 99 1014.8
20260905063530 70 138 0.0 0.0 0.00 0.00 0.00 99 1014.8
20260905063026 70 138 0.0 0.0 0.00 0.00 0.00 99 1014.8
20260905062527 70 138 0.0 0.0 0.00 0.00 0.00 99 1015.1
20260905062027 70 138 0.0 0.0 0.00 0.00 0.00 99 1015.1
20260905061522 70 138 0.0 0.0 0.00 0.00 0.00 99 1015.0
20260905061021 70 138 0.0 0.0 0.00 0.00 0.00 99 1015.1
20260905060517 70 138 0.0 0.0 0.00 0.00 0.00 99 1015.0
20260905060013 70 139 0.0 0.0 0.00 0.00 0.00 99 1015.0
20260905055511 70 139 0.0 0.0 0.00 0.00 0.00 99 1015.2
20260905055006 71 138 0.0 0.0 0.00 0.00 0.00 98 1015.4
20260905054502 70 124 0.0 0.0 0.00 0.00 0.00 98 1015.2
20260905053957 70 124 0.0 0.0 0.00 0.00 0.00 98 1015.4
20260905053451 70 124 0.0 0.0 0.00 0.00 0.00 98 1015.3
20260905052947 70 124 0.0 0.0 0.00 0.00 0.00 98 1015.3
20260905052446 70 124 0.0 0.0 0.00 0.00 0.00 98 1015.1
20260905051946 70 124 0.0 0.0 0.00 0.00 0.00 98 1014.9
20260905051441 70 124 0.0 0.0 0.00 0.00 0.00 98 1014.9
20260905050939 70 124 0.0 0.0 0.00 0.00 0.00 98 1015.0
20260905050434 70 124 0.0 0.0 0.00 0.00 0.00 98 1014.8
20260905045930 70 124 0.0 0.0 0.00 0.00 0.00 97 1014.8
20260905045425 71 124 0.0 0.0 0.00 0.00 0.00 98 1015.0
20260905044921 71 124 0.0 0.0 0.00 0.00 0.00 97 1015.1
20260905044415 71 124 0.0 0.0 0.00 0.00 0.00 97 1015.0
20260905043915 71 124 0.0 0.0 0.00 0.00 0.00 97 1015.1
20260905043409 71 124 0.0 0.0 0.00 0.00 0.00 97 1015.1
20260905042909 71 124 0.0 0.0 0.00 0.00 0.00 97 1015.5
20260905042358 71 124 0.0 0.0 0.00 0.00 0.00 97 1015.5
20260905041853 71 124 0.0 0.0 0.00 0.00 0.00 97 1015.4
20260905041349 72 123 0.0 0.0 0.00 0.00 0.00 97 1015.4
20260905040849 72 123 0.0 0.0 0.00 0.00 0.00 97 1015.4
20260905040348 72 123 0.0 0.0 0.00 0.00 0.00 97 1015.5
20260905035847 72 123 0.0 0.0 0.00 0.38 0.38 97 1015.3
20260905035343 72 123 0.0 0.0 0.00 0.38 0.38 97 1015.3
20260905034840 72 123 0.0 0.0 0.00 0.38 0.38 97 1015.3
20260905034335 72 123 0.0 0.0 0.00 0.38 0.38 97 1015.1
20260905033833 72 123 0.0 0.0 0.00 0.38 0.38 96 1015.3
20260905033329 72 123 0.0 0.0 0.00 0.38 0.38 96 1015.2
20260905032828 72 123 0.0 0.0 0.00 0.38 0.38 96 1015.1
20260905032324 72 123 0.0 0.0 0.00 0.38 0.38 96 1015.3
20260905031819 72 123 0.0 0.0 0.00 0.38 0.38 96 1015.3
20260905031315 72 123 0.0 0.0 0.00 0.38 0.38 96 1015.2
20260905030810 72 123 0.0 0.0 0.00 0.38 0.38 96 1015.2
20260905030301 73 123 0.0 0.0 0.00 0.38 0.38 96 1015.2
20260905025759 73 124 0.0 0.0 0.00 0.38 0.38 96 1015.1